Radiation Dose at Monitoring Post of Fukushima Daini Nuclear Power Station
Date,Time,MP-1(microSv/h),MP-2(microSv/h),MP-3(microSv/h),MP-4(microSv/h),MP-5(microSv/h),MP-6(microSv/h),MP-7(microSv/h),Wind Direction,Wind Velocity(m/s),Rain
2023/02/10,00:00,0.153,0.139,0.214,0.212,0.211,0.122,0.078,west-northwest,2.7,No
2023/02/10,00:10,0.154,0.140,0.215,0.211,0.211,0.122,0.077,west-northwest,1.3,No
2023/02/10,00:20,0.154,0.140,0.215,0.210,0.211,0.122,0.077,northwest,1.5,No
2023/02/10,00:30,0.153,0.139,0.214,0.211,0.210,0.122,0.078,northwest,2.1,No
2023/02/10,00:40,0.153,0.140,0.214,0.211,0.211,0.122,0.077,northwest,2.1,No
2023/02/10,00:50,0.154,0.139,0.214,0.211,0.211,0.121,0.078,northwest,2.1,No
2023/02/10,01:00,0.154,0.140,0.214,0.210,0.211,0.122,0.077,northwest,2.1,No
2023/02/10,01:10,0.153,0.140,0.215,0.211,0.211,0.121,0.078,northwest,2.5,No
2023/02/10,01:20,0.153,0.140,0.214,0.211,0.211,0.123,0.077,north-northwest,2.7,No
2023/02/10,01:30,0.153,0.139,0.214,0.211,0.211,0.122,0.078,north-northwest,3.5,No
2023/02/10,01:40,0.153,0.140,0.214,0.211,0.211,0.122,0.078,northwest,4.1,No
2023/02/10,01:50,0.154,0.139,0.214,0.211,0.211,0.122,0.078,north-northwest,5.1,No
2023/02/10,02:00,0.154,0.139,0.214,0.211,0.211,0.123,0.078,north-northwest,4.8,No
2023/02/10,02:10,0.154,0.140,0.215,0.211,0.212,0.123,0.078,north-northwest,5.1,No
2023/02/10,02:20,0.154,0.139,0.215,0.210,0.212,0.122,0.077,north-northwest,5.3,No
2023/02/10,02:30,0.154,0.139,0.214,0.211,0.211,0.122,0.079,north-northwest,5.7,No
2023/02/10,02:40,0.154,0.139,0.215,0.211,0.212,0.123,0.078,north-northwest,4.6,No
2023/02/10,02:50,0.153,0.139,0.215,0.212,0.212,0.122,0.078,north-northwest,3.9,No
2023/02/10,03:00,0.153,0.139,0.215,0.211,0.210,0.121,0.077,north-northwest,5.5,No
2023/02/10,03:10,0.154,0.139,0.215,0.210,0.211,0.122,0.078,northwest,5.2,No
2023/02/10,03:20,0.153,0.139,0.214,0.211,0.211,0.121,0.077,northwest,5.3,No
2023/02/10,03:30,0.155,0.139,0.214,0.210,0.211,0.123,0.078,northwest,5.9,No
2023/02/10,03:40,0.153,0.140,0.214,0.210,0.210,0.121,0.079,northwest,5.8,No
2023/02/10,03:50,0.153,0.138,0.214,0.210,0.211,0.122,0.077,northwest,6.0,No
2023/02/10,04:00,0.153,0.139,0.215,0.210,0.212,0.122,0.077,northwest,4.8,No
2023/02/10,04:10,0.153,0.139,0.215,0.210,0.212,0.121,0.078,northwest,5.4,No
2023/02/10,04:20,0.153,0.138,0.214,0.211,0.212,0.123,0.078,northwest,6.4,No
2023/02/10,04:30,0.154,0.139,0.214,0.211,0.211,0.122,0.077,north-northwest,6.0,No
2023/02/10,04:40,0.154,0.139,0.214,0.211,0.211,0.122,0.078,northwest,6.6,No
2023/02/10,04:50,0.154,0.140,0.214,0.211,0.211,0.122,0.078,northwest,6.2,No
2023/02/10,05:00,0.154,0.139,0.214,0.210,0.210,0.122,0.078,northwest,5.9,No
2023/02/10,05:10,0.154,0.139,0.214,0.211,0.211,0.123,0.078,northwest,5.9,No
2023/02/10,05:20,0.154,0.139,0.213,0.210,0.211,0.121,0.078,northwest,5.9,No
2023/02/10,05:30,0.154,0.140,0.215,0.209,0.211,0.122,0.077,northwest,6.8,No
2023/02/10,05:40,0.153,0.138,0.214,0.211,0.212,0.121,0.077,northwest,6.4,No
2023/02/10,05:50,0.154,0.139,0.214,0.211,0.213,0.122,0.077,northwest,5.8,No
2023/02/10,06:00,0.153,0.139,0.213,0.211,0.212,0.123,0.078,northwest,6.4,No
2023/02/10,06:10,0.152,0.139,0.214,0.211,0.212,0.122,0.078,northwest,5.9,No
2023/02/10,06:20,0.154,0.139,0.213,0.211,0.212,0.122,0.078,northwest,6.1,No
2023/02/10,06:30,0.154,0.140,0.214,0.211,0.211,0.122,0.078,northwest,5.5,No
2023/02/10,06:40,0.154,0.139,0.215,0.210,0.210,0.122,0.077,northwest,5.3,No
2023/02/10,06:50,0.152,0.140,0.214,0.210,0.210,0.121,0.077,northwest,5.0,No
2023/02/10,07:00,0.154,0.139,0.214,0.210,0.211,0.122,0.077,northwest,5.2,No
2023/02/10,07:10,0.153,0.140,0.213,0.210,0.211,0.121,0.078,northwest,5.6,No
2023/02/10,07:20,0.153,0.139,0.215,0.211,0.211,0.122,0.078,northwest,5.1,No
2023/02/10,07:30,0.154,0.138,0.216,0.210,0.211,0.122,0.078,northwest,5.7,No
2023/02/10,07:40,0.154,0.138,0.213,0.211,0.211,0.122,0.077,northwest,5.1,No
2023/02/10,07:50,0.153,0.138,0.214,0.210,0.211,0.121,0.077,northwest,5.0,No
2023/02/10,08:00,0.153,0.138,0.215,0.210,0.211,0.122,0.077,northwest,5.2,No
2023/02/10,08:10,0.154,0.139,0.215,0.211,0.211,0.122,0.078,northwest,5.5,No
2023/02/10,08:20,0.153,0.139,0.215,0.211,0.211,0.122,0.077,northwest,6.0,Yes
2023/02/10,08:30,0.154,0.139,0.214,0.210,0.213,0.123,0.078,northwest,6.0,Yes
2023/02/10,08:40,0.154,0.139,0.214,0.211,0.211,0.123,0.078,northwest,4.8,No
2023/02/10,08:50,0.154,0.140,0.214,0.210,0.212,0.122,0.077,northwest,4.2,Yes
2023/02/10,09:00,0.153,0.139,0.216,0.211,0.211,0.122,0.078,northwest,5.0,Yes
2023/02/10,09:10,0.154,0.140,0.215,0.211,0.212,0.122,0.078,north-northwest,4.3,Yes
2023/02/10,09:20,0.154,0.141,0.217,0.211,0.211,0.124,0.078,north-northwest,4.5,Yes
2023/02/10,09:30,0.155,0.140,0.216,0.212,0.213,0.123,0.079,north-northwest,4.9,Yes
2023/02/10,09:40,0.154,0.139,0.215,0.211,0.212,0.122,0.078,north-northwest,4.6,Yes
2023/02/10,09:50,0.154,0.140,0.214,0.210,0.211,0.122,0.078,north-northwest,4.7,No
2023/02/10,10:00,0.154,0.140,0.214,0.212,0.213,0.123,0.079,north-northwest,5.0,Yes
2023/02/10,10:10,0.155,0.140,0.214,0.212,0.212,0.122,0.079,north-northwest,6.0,Yes
2023/02/10,10:20,0.155,0.139,0.215,0.212,0.213,0.122,0.079,northwest,6.3,Yes
2023/02/10,10:30,0.154,0.140,0.214,0.211,0.213,0.123,0.078,northwest,5.3,Yes
2023/02/10,10:40,0.154,0.141,0.215,0.212,0.213,0.123,0.079,northwest,5.8,Yes
2023/02/10,10:50,0.155,0.140,0.216,0.212,0.211,0.124,0.080,northwest,5.7,Yes
2023/02/10,11:00,0.156,0.141,0.215,0.212,0.213,0.125,0.080,northwest,5.5,Yes
2023/02/10,11:10,0.155,0.141,0.216,0.211,0.214,0.125,0.080,northwest,5.1,Yes
2023/02/10,11:20,0.156,0.141,0.216,0.211,0.212,0.125,0.081,northwest,5.9,Yes
2023/02/10,11:30,0.156,0.142,0.215,0.212,0.212,0.125,0.081,northwest,5.4,Yes
2023/02/10,11:40,0.156,0.141,0.217,0.212,0.212,0.125,0.080,northwest,6.2,Yes
2023/02/10,11:50,0.157,0.142,0.217,0.211,0.212,0.126,0.081,northwest,6.3,Yes
2023/02/10,12:00,0.156,0.141,0.215,0.210,0.213,0.125,0.080,northwest,6.0,Yes
2023/02/10,12:10,0.156,0.141,0.216,0.211,0.212,0.125,0.081,north-northwest,5.2,Yes
2023/02/10,12:20,0.155,0.142,0.215,0.212,0.213,0.126,0.080,northwest,5.7,Yes
2023/02/10,12:30,0.156,0.142,0.216,0.211,0.212,0.125,0.081,north-northwest,6.6,Yes
2023/02/10,12:40,0.156,0.142,0.216,0.211,0.213,0.126,0.081,northwest,6.7,Yes
2023/02/10,12:50,0.156,0.142,0.215,0.213,0.214,0.125,0.081,northwest,7.3,Yes
2023/02/10,13:00,0.156,0.142,0.215,0.211,0.213,0.127,0.081,northwest,7.3,Yes
2023/02/10,13:10,0.155,0.143,0.215,0.212,0.213,0.126,0.080,northwest,7.6,Yes
2023/02/10,13:20,0.156,0.142,0.217,0.212,0.212,0.126,0.081,northwest,6.6,Yes
2023/02/10,13:30,0.156,0.142,0.215,0.210,0.212,0.125,0.082,northwest,7.3,Yes
2023/02/10,13:40,0.157,0.142,0.215,0.212,0.214,0.126,0.082,northwest,8.1,Yes
2023/02/10,13:50,0.156,0.143,0.215,0.212,0.213,0.126,0.081,northwest,7.4,Yes
2023/02/10,14:00,0.156,0.142,0.215,0.211,0.213,0.126,0.081,northwest,7.3,Yes
2023/02/10,14:10,0.155,0.141,0.214,0.211,0.213,0.127,0.081,northwest,7.3,Yes
2023/02/10,14:20,0.156,0.142,0.216,0.210,0.213,0.127,0.082,north-northwest,7.6,Yes
2023/02/10,14:30,0.157,0.142,0.216,0.211,0.212,0.127,0.082,northwest,8.1,Yes
2023/02/10,14:40,0.157,0.143,0.216,0.212,0.214,0.128,0.083,northwest,8.1,Yes
2023/02/10,14:50,0.158,0.144,0.217,0.212,0.215,0.128,0.084,north-northwest,7.9,Yes
2023/02/10,15:00,0.158,0.143,0.217,0.212,0.213,0.129,0.084,north-northwest,7.4,Yes
2023/02/10,15:10,0.159,0.145,0.217,0.213,0.215,0.130,0.084,northwest,6.5,Yes
2023/02/10,15:20,0.158,0.146,0.216,0.212,0.215,0.129,0.085,northwest,8.4,Yes
2023/02/10,15:30,0.159,0.146,0.216,0.213,0.215,0.130,0.086,northwest,8.1,Yes
2023/02/10,15:40,0.160,0.147,0.218,0.214,0.216,0.132,0.087,northwest,7.3,Yes
2023/02/10,15:50,0.161,0.147,0.217,0.215,0.216,0.133,0.089,northwest,7.9,Yes
2023/02/10,16:00,0.162,0.149,0.217,0.213,0.216,0.133,0.089,northwest,8.1,Yes
2023/02/10,16:10,0.161,0.147,0.217,0.212,0.215,0.133,0.089,northwest,8.5,Yes
2023/02/10,16:20,0.161,0.148,0.216,0.211,0.215,0.133,0.088,northwest,8.1,Yes
2023/02/10,16:30,0.160,0.145,0.215,0.209,0.214,0.133,0.088,northwest,8.2,Yes
2023/02/10,16:40,0.159,0.145,0.213,0.209,0.213,0.133,0.088,northwest,7.8,Yes
2023/02/10,16:50,0.158,0.145,0.213,0.210,0.213,0.134,0.087,northwest,7.4,Yes
2023/02/10,17:00,0.159,0.144,0.212,0.209,0.213,0.133,0.086,northwest,7.8,Yes
2023/02/10,17:10,0.158,0.144,0.211,0.207,0.213,0.133,0.086,northwest,7.3,Yes
2023/02/10,17:20,0.157,0.143,0.211,0.207,0.212,0.132,0.086,west-northwest,9.2,Yes
2023/02/10,17:30,0.156,0.144,0.211,0.208,0.212,0.132,0.087,north-northwest,9.5,Yes
2023/02/10,17:40,0.157,0.144,0.211,0.206,0.209,0.133,0.086,northwest,9.5,Yes
2023/02/10,17:50,0.157,0.143,0.212,0.204,0.209,0.133,0.086,northwest,9.2,Yes
2023/02/10,18:00,0.157,0.142,0.210,0.204,0.208,0.130,0.086,northwest,9.2,Yes
2023/02/10,18:10,0.157,0.143,0.209,0.202,0.206,0.129,0.085,northwest,8.4,Yes
2023/02/10,18:20,0.157,0.142,0.207,0.201,0.206,0.129,0.085,northwest,9.2,Yes
2023/02/10,18:30,0.157,0.142,0.208,0.200,0.205,0.127,0.084,northwest,8.8,Yes
2023/02/10,18:40,0.157,0.143,0.207,0.199,0.203,0.127,0.084,northwest,8.4,Yes
2023/02/10,18:50,0.157,0.143,0.206,0.199,0.202,0.126,0.084,northwest,8.7,Yes
2023/02/10,19:00,0.157,0.143,0.206,0.198,0.202,0.124,0.084,northwest,8.4,Yes
2023/02/10,19:10,0.156,0.142,0.206,0.198,0.202,0.126,0.084,northwest,8.8,Yes
2023/02/10,19:20,0.156,0.141,0.206,0.197,0.202,0.124,0.084,northwest,9.5,Yes
2023/02/10,19:30,0.155,0.142,0.205,0.196,0.202,0.124,0.084,northwest,7.9,Yes
2023/02/10,19:40,0.156,0.143,0.204,0.197,0.201,0.123,0.084,northwest,7.9,Yes
2023/02/10,19:50,0.157,0.142,0.205,0.197,0.201,0.124,0.084,northwest,8.2,Yes
2023/02/10,20:00,0.157,0.141,0.204,0.196,0.201,0.123,0.083,northwest,7.9,Yes
2023/02/10,20:10,0.156,0.142,0.205,0.197,0.201,0.123,0.084,north-northwest,9.3,Yes
2023/02/10,20:20,0.155,0.142,0.205,0.195,0.200,0.124,0.084,north-northwest,8.5,Yes
2023/02/10,20:30,0.157,0.142,0.204,0.197,0.202,0.124,0.084,north-northwest,7.4,Yes
2023/02/10,20:40,0.155,0.142,0.204,0.197,0.202,0.124,0.085,north-northwest,8.2,Yes
2023/02/10,20:50,0.155,0.142,0.205,0.196,0.200,0.124,0.085,north-northwest,8.1,Yes
2023/02/10,21:00,0.156,0.143,0.206,0.198,0.202,0.124,0.085,north-northwest,7.5,Yes
2023/02/10,21:10,0.157,0.142,0.205,0.197,0.203,0.123,0.085,north-northwest,7.1,Yes
2023/02/10,21:20,0.156,0.143,0.205,0.195,0.202,0.124,0.086,north-northwest,7.1,Yes
2023/02/10,21:30,0.156,0.144,0.206,0.196,0.202,0.123,0.085,north-northwest,6.4,Yes
2023/02/10,21:40,0.156,0.142,0.206,0.196,0.202,0.124,0.086,north-northwest,7.0,Yes
2023/02/10,21:50,0.155,0.143,0.206,0.196,0.202,0.122,0.085,north-northwest,8.1,Yes
2023/02/10,22:00,0.156,0.142,0.206,0.197,0.203,0.123,0.085,north-northwest,7.3,Yes
2023/02/10,22:10,0.155,0.143,0.207,0.196,0.202,0.123,0.085,north-northwest,7.1,Yes
2023/02/10,22:20,0.154,0.142,0.206,0.196,0.202,0.123,0.085,north-northwest,7.3,Yes
2023/02/10,22:30,0.155,0.141,0.207,0.197,0.203,0.124,0.085,north-northwest,5.8,Yes
2023/02/10,22:40,0.154,0.142,0.205,0.197,0.202,0.124,0.086,north-northwest,6.0,Yes
2023/02/10,22:50,0.153,0.142,0.206,0.197,0.204,0.124,0.086,north-northwest,7.1,Yes
2023/02/10,23:00,0.155,0.143,0.207,0.199,0.203,0.125,0.085,north-northwest,8.2,Yes
2023/02/10,23:10,0.154,0.143,0.208,0.198,0.205,0.124,0.086,north,8.7,Yes
2023/02/10,23:20,0.154,0.141,0.206,0.197,0.204,0.123,0.085,north-northwest,7.8,Yes
2023/02/10,23:30,0.152,0.142,0.206,0.199,0.204,0.123,0.084,north-northwest,8.4,Yes
2023/02/10,23:40,0.153,0.142,0.206,0.197,0.204,0.123,0.085,north-northwest,7.7,Yes
2023/02/10,23:50,0.153,0.141,0.206,0.197,0.204,0.123,0.085,north-northwest,8.6,Yes
